Date,TemperatureHighF,TemperatureAvgF,TemperatureLowF,DewpointHighF,DewpointAvgF,DewpointLowF,HumidityHigh,HumidityAvg,HumidityLow,PressureMaxIn,PressureMinIn,WindSpeedMaxMPH,WindSpeedAvgMPH,GustSpeedMaxMPH,PrecipitationSumIn
2013-11-1,64.8,56.2,49.3,58.3,41.9,31.5,92,61,37,28.50,28.14,12,4,13,0.00
2013-11-2,51.8,46.3,39.4,43.2,40.6,36.1,94,81,59,28.76,28.47,2,0,2,0.00
2013-11-3,55.2,39.1,27.3,39.1,26.3,16.1,97,65,29,29.20,28.70,0,0,0,0.00
2013-11-4,45.7,35.9,26.4,19.2,12.2,4.5,72,41,20,29.32,29.17,0,0,0,0.00
2013-11-5,63.0,47.6,39.0,25.6,20.0,11.1,42,34,24,29.23,29.06,0,0,0,0.00
2013-11-6,71.8,55.4,37.6,56.6,36.2,16.5,96,51,31,29.12,28.64,17,2,22,0.00
2013-11-7,62.6,43.2,34.7,57.0,34.6,18.5,98,74,42,28.88,28.64,6,3,6,0.00
2013-11-8,44.2,36.3,27.9,34.5,25.3,18.3,90,66,40,29.06,28.82,6,6,6,0.00
2013-11-9,57.6,43.4,26.8,27.5,21.7,14.3,81,47,19,29.06,28.67,6,6,6,0.00
2013-11-10,54.0,44.6,35.6,32.7,24.8,18.8,59,46,37,29.03,28.67,6,6,6,0.00
2013-11-11,46.6,38.4,30.0,34.5,25.4,19.6,89,62,34,29.03,28.76,6,6,6,0.00
2013-11-12,42.4,31.4,27.1,28.0,19.7,9.9,89,64,34,29.20,28.82,10,4,10,0.00
2013-11-13,42.3,32.0,26.4,19.0,13.3,9.6,69,46,30,29.26,29.06,2,2,2,0.00
2013-11-14,52.9,37.9,26.1,16.1,11.6,6.5,58,36,18,29.12,28.88,6,2,6,0.00
2013-11-15,60.1,46.4,37.0,23.1,13.4,9.2,40,27,17,28.94,28.85,6,6,6,0.00
2013-11-16,60.8,47.6,31.1,42.5,32.5,18.1,80,57,39,29.00,28.76,6,6,6,0.00
2013-11-17,59.9,56.0,52.2,57.6,51.6,37.9,98,86,51,28.88,28.32,6,6,6,0.00
2013-11-18,60.1,46.1,35.8,39.5,27.2,18.8,63,48,30,28.85,28.32,6,6,6,0.00
2013-11-19,39.2,34.2,23.9,21.2,17.9,14.9,72,51,41,29.17,28.73,6,6,6,0.00
2013-11-20,50.2,35.1,21.2,19.3,10.3,1.0,79,43,19,29.23,29.09,9,4,9,0.00
2013-11-21,45.3,39.4,33.8,35.1,23.4,1.0,75,55,27,29.14,28.97,3,3,3,0.00
2013-11-22,50.7,44.9,33.8,49.9,41.7,27.5,98,89,60,29.03,28.82,3,3,3,0.00
2013-11-23,37.9,28.0,19.0,27.5,17.3,1.4,90,65,40,29.09,28.88,3,3,3,0.00
2013-11-24,30.0,20.0,10.8,13.5,5.6,0.3,70,54,33,29.26,29.03,3,3,3,0.00
2013-11-25,36.0,24.0,10.9,22.6,5.3,0.3,73,47,24,29.23,28.91,3,3,3,0.00
2013-11-26,34.2,32.0,29.7,32.0,28.8,5.4,98,88,71,28.97,28.55,3,3,3,0.00
2013-11-27,33.3,27.8,21.6,31.3,23.2,10.9,98,83,52,28.85,28.52,0,0,0,0.00
2013-11-28,35.4,23.8,13.5,17.1,13.3,7.0,82,65,37,29.14,28.76,0,0,0,0.00
2013-11-29,47.1,26.7,17.8,26.8,15.7,10.9,82,65,38,29.41,29.12,0,0,0,0.00
2013-11-30,38.7,26.5,17.6,16.5,15.4,10.9,79,64,40,29.38,29.09,6,0,6,0.00